Tracking 35331 objects as of 16-Sep-2026
HD Live streaming from Space Station
objects crossing your sky now

COSMOS 1484 DEB


COSMOS 1484 DEB is no longer on orbit


NORAD ID: 22948
Int'l Code: 1983-075AM
Launch date: July 24, 1983
Source: Commonwealth of Independent States (former USSR) (CIS)
Launch site: TYURATAM MISSILE AND SPACE COMPLEX (TTMTR)
Decay date: 1999-06-24

Note: This is SATELLITE DEBRIS
Your satellite tracking list
Your tracking list is empty




NASA's NSSDC Master Catalog

Two Line Element Set (TLE):
1 22948U 83075AM  99175.41677986 +.05429146 +71693-1 +74190-2 0  9998
2 22948 098.2181 332.1014 0020441 296.2374 069.4504 16.10819830309214
Source of the keplerian elements: AFSPC